Time,TemperatureF,DewpointF,PressureIn,WindDirection,WindDirectionDegrees,WindSpeedMPH,WindSpeedGustMPH,Humidity,HourlyPrecipIn,Conditions,Clouds,dailyrainin,SoftwareType,DateUTC
2013-06-08 00:03:00,62.0,-99.9,-100.00,North,-999,-999.0,-999.0,-999,0.00,,,0.00,,2013-06-08 05:03:00,
2013-06-08 00:12:00,62.0,-99.9,-100.00,North,-999,-999.0,-999.0,-999,0.00,,,0.00,,2013-06-08 05:12:00,
2013-06-08 00:22:00,62.0,-99.9,-100.00,North,-999,-999.0,-999.0,-999,0.00,,,0.00,,2013-06-08 05:22:00,
2013-06-08 00:30:00,62.0,-99.9,-100.00,North,-999,-999.0,-999.0,-999,0.00,,,0.00,,2013-06-08 05:30:00,
2013-06-08 00:53:00,62.0,-99.9,-100.00,North,-999,-999.0,-999.0,-999,0.00,,,0.00,,2013-06-08 05:53:00,
2013-06-08 01:02:00,62.0,-99.9,-100.00,North,-999,-999.0,-999.0,-999,0.00,,,0.00,,2013-06-08 06:02:00,
2013-06-08 01:13:00,62.0,-99.9,-100.00,North,-999,-999.0,-999.0,-999,0.00,,,0.00,,2013-06-08 06:13:00,
2013-06-08 01:22:00,62.0,-99.9,-100.00,North,-999,-999.0,-999.0,-999,0.00,,,0.00,,2013-06-08 06:22:00,
2013-06-08 01:53:00,66.0,-99.9,-100.00,North,-999,-999.0,-999.0,-999,0.00,,,0.00,,2013-06-08 06:53:00,
2013-06-08 02:02:00,66.0,-99.9,-100.00,North,-999,-999.0,-999.0,-999,0.00,,,0.00,,2013-06-08 07:02:00,
2013-06-08 02:53:00,63.0,-99.9,-100.00,North,-999,-999.0,-999.0,-999,-99.99,,,0.00,,2013-06-08 07:53:00,
2013-06-08 03:02:00,63.0,-99.9,-100.00,North,-999,-999.0,-999.0,-999,-99.99,,,0.00,,2013-06-08 08:02:00,
2013-06-08 03:12:00,63.0,-99.9,-100.00,North,-999,-999.0,-999.0,-999,-99.99,,,0.00,,2013-06-08 08:12:00,
2013-06-08 03:22:00,63.0,-99.9,-100.00,North,-999,-999.0,-999.0,-999,-99.99,,,0.00,,2013-06-08 08:22:00,
2013-06-08 03:30:00,64.0,-99.9,-100.00,North,-999,-999.0,-999.0,-999,0.00,,,0.00,,2013-06-08 08:30:00,
2013-06-08 03:53:00,64.0,-99.9,-100.00,North,-999,-999.0,-999.0,-999,0.00,,,0.00,,2013-06-08 08:53:00,
2013-06-08 04:02:00,64.0,-99.9,-100.00,North,-999,-999.0,-999.0,-999,0.00,,,0.00,,2013-06-08 09:02:00,
2013-06-08 04:12:00,64.0,-99.9,-100.00,North,-999,-999.0,-999.0,-999,0.00,,,0.00,,2013-06-08 09:12:00,
2013-06-08 04:23:00,64.0,-99.9,-100.00,North,-999,-999.0,-999.0,-999,0.00,,,0.00,,2013-06-08 09:23:00,
2013-06-08 05:53:00,65.0,-99.9,-100.00,North,-999,-999.0,-999.0,-999,0.00,,,0.00,,2013-06-08 10:53:00,
2013-06-08 06:03:00,65.0,-99.9,-100.00,North,-999,-999.0,-999.0,-999,0.00,,,0.00,,2013-06-08 11:03:00,
2013-06-08 06:12:00,65.0,-99.9,-100.00,North,-999,-999.0,-999.0,-999,0.00,,,0.00,,2013-06-08 11:12:00,
2013-06-08 06:22:00,65.0,-99.9,-100.00,North,-999,-999.0,-999.0,-999,0.00,,,0.00,,2013-06-08 11:22:00,
2013-06-08 06:30:00,63.0,-99.9,-100.00,North,-999,-999.0,-999.0,-999,0.00,,,0.00,,2013-06-08 11:30:00,
2013-06-08 06:52:00,63.0,-99.9,-100.00,North,-999,-999.0,-999.0,-999,0.00,,,0.00,,2013-06-08 11:52:00,
2013-06-08 07:02:00,63.0,-99.9,-100.00,North,-999,-999.0,-999.0,-999,0.00,,,0.00,,2013-06-08 12:02:00,
2013-06-08 07:12:00,63.0,-99.9,-100.00,North,-999,-999.0,-999.0,-999,0.00,,,0.00,,2013-06-08 12:12:00,
2013-06-08 07:22:00,63.0,-99.9,-100.00,North,-999,-999.0,-999.0,-999,0.00,,,0.00,,2013-06-08 12:22:00,
2013-06-08 07:30:00,62.0,-99.9,-100.00,North,-999,-999.0,-999.0,-999,0.15,,,0.18,,2013-06-08 12:30:00,
2013-06-08 07:52:00,62.0,-99.9,-100.00,North,-999,-999.0,-999.0,-999,0.15,,,0.18,,2013-06-08 12:52:00,
2013-06-08 08:03:00,62.0,-99.9,-100.00,North,-999,-999.0,-999.0,-999,0.15,,,0.18,,2013-06-08 13:03:00,
2013-06-08 08:12:00,62.0,-99.9,-100.00,North,-999,-999.0,-999.0,-999,0.15,,,0.18,,2013-06-08 13:12:00,
2013-06-08 08:22:00,62.0,-99.9,-100.00,North,-999,-999.0,-999.0,-999,0.15,,,0.18,,2013-06-08 13:22:00,
2013-06-08 08:30:00,54.0,-99.9,-100.00,North,-999,-999.0,-999.0,-999,0.33,,,0.51,,2013-06-08 13:30:00,
2013-06-08 08:53:00,54.0,-99.9,-100.00,North,-999,-999.0,-999.0,-999,0.33,,,0.51,,2013-06-08 13:53:00,
2013-06-08 09:02:00,54.0,-99.9,-100.00,North,-999,-999.0,-999.0,-999,0.33,,,0.51,,2013-06-08 14:02:00,
2013-06-08 09:12:00,54.0,-99.9,-100.00,North,-999,-999.0,-999.0,-999,0.33,,,0.51,,2013-06-08 14:12:00,
2013-06-08 09:22:00,54.0,-99.9,-100.00,North,-999,-999.0,-999.0,-999,0.33,,,0.51,,2013-06-08 14:22:00,
2013-06-08 09:52:00,70.0,-99.9,-100.00,North,-999,-999.0,-999.0,-999,0.13,,,0.64,,2013-06-08 14:52:00,
2013-06-08 10:03:00,70.0,-99.9,-100.00,North,-999,-999.0,-999.0,-999,0.13,,,0.64,,2013-06-08 15:03:00,
2013-06-08 10:54:00,55.0,-99.9,-100.00,North,-999,-999.0,-999.0,-999,0.04,,,0.71,,2013-06-08 15:54:00,
2013-06-08 11:03:00,55.0,-99.9,-100.00,North,-999,-999.0,-999.0,-999,0.04,,,0.71,,2013-06-08 16:03:00,
2013-06-08 11:12:00,55.0,-99.9,-100.00,North,-999,-999.0,-999.0,-999,0.04,,,0.71,,2013-06-08 16:12:00,
2013-06-08 11:23:00,55.0,-99.9,-100.00,North,-999,-999.0,-999.0,-999,0.04,,,0.71,,2013-06-08 16:23:00,
2013-06-08 11:30:00,57.0,-99.9,-100.00,North,-999,-999.0,-999.0,-999,0.25,,,0.96,,2013-06-08 16:30:00,
2013-06-08 11:53:00,57.0,-99.9,-100.00,North,-999,-999.0,-999.0,-999,0.25,,,0.96,,2013-06-08 16:53:00,
2013-06-08 12:02:00,57.0,-99.9,-100.00,North,-999,-999.0,-999.0,-999,0.25,,,0.96,,2013-06-08 17:02:00,
2013-06-08 12:12:00,57.0,-99.9,-100.00,North,-999,-999.0,-999.0,-999,0.25,,,0.96,,2013-06-08 17:12:00,
2013-06-08 12:23:00,57.0,-99.9,-100.00,North,-999,-999.0,-999.0,-999,0.25,,,0.96,,2013-06-08 17:23:00,
2013-06-08 12:30:00,58.0,-99.9,-100.00,North,-999,-999.0,-999.0,-999,0.02,,,0.98,,2013-06-08 17:30:00,
2013-06-08 12:52:00,58.0,-99.9,-100.00,North,-999,-999.0,-999.0,-999,0.02,,,0.98,,2013-06-08 17:52:00,
2013-06-08 13:02:00,58.0,-99.9,-100.00,North,-999,-999.0,-999.0,-999,0.02,,,0.98,,2013-06-08 18:02:00,
2013-06-08 13:12:00,58.0,-99.9,-100.00,North,-999,-999.0,-999.0,-999,0.02,,,0.98,,2013-06-08 18:12:00,
2013-06-08 13:22:00,58.0,-99.9,-100.00,North,-999,-999.0,-999.0,-999,0.02,,,0.98,,2013-06-08 18:22:00,
2013-06-08 13:30:00,58.0,-99.9,-100.00,North,-999,-999.0,-999.0,-999,0.06,,,1.04,,2013-06-08 18:30:00,
2013-06-08 13:52:00,58.0,-99.9,-100.00,North,-999,-999.0,-999.0,-999,0.06,,,1.04,,2013-06-08 18:52:00,
2013-06-08 14:03:00,58.0,-99.9,-100.00,North,-999,-999.0,-999.0,-999,0.06,,,1.04,,2013-06-08 19:03:00,
2013-06-08 14:13:00,58.0,-99.9,-100.00,North,-999,-999.0,-999.0,-999,0.06,,,1.04,,2013-06-08 19:13:00,
2013-06-08 14:22:00,58.0,-99.9,-100.00,North,-999,-999.0,-999.0,-999,0.06,,,1.04,,2013-06-08 19:22:00,
2013-06-08 14:30:00,59.0,-99.9,-100.00,North,-999,-999.0,-999.0,-999,0.01,,,1.05,,2013-06-08 19:30:00,
2013-06-08 14:53:00,59.0,-99.9,-100.00,North,-999,-999.0,-999.0,-999,0.01,,,1.05,,2013-06-08 19:53:00,
2013-06-08 15:02:00,59.0,-99.9,-100.00,North,-999,-999.0,-999.0,-999,0.01,,,1.05,,2013-06-08 20:02:00,
2013-06-08 15:12:00,59.0,-99.9,-100.00,North,-999,-999.0,-999.0,-999,0.01,,,1.05,,2013-06-08 20:12:00,
2013-06-08 15:22:00,59.0,-99.9,-100.00,North,-999,-999.0,-999.0,-999,0.01,,,1.05,,2013-06-08 20:22:00,
2013-06-08 15:30:00,60.0,-99.9,-100.00,North,-999,-999.0,-999.0,-999,0.02,,,1.07,,2013-06-08 20:30:00,
2013-06-08 15:53:00,60.0,-99.9,-100.00,North,-999,-999.0,-999.0,-999,0.02,,,1.07,,2013-06-08 20:53:00,
2013-06-08 16:02:00,60.0,-99.9,-100.00,North,-999,-999.0,-999.0,-999,0.02,,,1.07,,2013-06-08 21:02:00,
2013-06-08 16:13:00,60.0,-99.9,-100.00,North,-999,-999.0,-999.0,-999,0.02,,,1.07,,2013-06-08 21:13:00,
2013-06-08 16:22:00,60.0,-99.9,-100.00,North,-999,-999.0,-999.0,-999,0.02,,,1.07,,2013-06-08 21:22:00,
2013-06-08 17:30:00,60.0,-99.9,-100.00,North,-999,-999.0,-999.0,-999,0.06,,,-99.99,,2013-06-08 22:30:00,
2013-06-08 17:53:00,60.0,-99.9,-100.00,North,-999,-999.0,-999.0,-999,0.06,,,-99.99,,2013-06-08 22:53:00,
2013-06-08 18:02:00,60.0,-99.9,-100.00,North,-999,-999.0,-999.0,-999,0.06,,,-99.99,,2013-06-08 23:02:00,
2013-06-08 18:12:00,60.0,-99.9,-100.00,North,-999,-999.0,-999.0,-999,0.06,,,-99.99,,2013-06-08 23:12:00,
2013-06-08 18:22:00,60.0,-99.9,-100.00,North,-999,-999.0,-999.0,-999,0.06,,,-99.99,,2013-06-08 23:22:00,
2013-06-08 18:53:00,60.0,-99.9,-100.00,North,-999,-999.0,-999.0,-999,0.09,,,1.25,,2013-06-08 23:53:00,
2013-06-08 19:02:00,60.0,-99.9,-100.00,North,-999,-999.0,-999.0,-999,0.09,,,1.25,,2013-06-09 00:02:00,
2013-06-08 19:12:00,60.0,-99.9,-100.00,North,-999,-999.0,-999.0,-999,0.09,,,1.25,,2013-06-09 00:12:00,
2013-06-08 19:22:00,60.0,-99.9,-100.00,North,-999,-999.0,-999.0,-999,0.09,,,1.25,,2013-06-09 00:22:00,
2013-06-08 19:30:00,59.0,-99.9,-100.00,North,-999,-999.0,-999.0,-999,0.23,,,1.48,,2013-06-09 00:30:00,
2013-06-08 19:52:00,59.0,-99.9,-100.00,North,-999,-999.0,-999.0,-999,0.23,,,1.48,,2013-06-09 00:52:00,
2013-06-08 20:02:00,59.0,-99.9,-100.00,North,-999,-999.0,-999.0,-999,0.23,,,1.48,,2013-06-09 01:02:00,
2013-06-08 20:12:00,59.0,-99.9,-100.00,North,-999,-999.0,-999.0,-999,0.23,,,1.48,,2013-06-09 01:12:00,
2013-06-08 20:22:00,59.0,-99.9,-100.00,North,-999,-999.0,-999.0,-999,0.23,,,1.48,,2013-06-09 01:22:00,
2013-06-08 20:30:00,59.0,-99.9,-100.00,North,-999,-999.0,-999.0,-999,0.07,,,1.55,,2013-06-09 01:30:00,
2013-06-08 20:52:00,59.0,-99.9,-100.00,North,-999,-999.0,-999.0,-999,0.07,,,1.55,,2013-06-09 01:52:00,
2013-06-08 21:02:00,59.0,-99.9,-100.00,North,-999,-999.0,-999.0,-999,0.07,,,1.55,,2013-06-09 02:02:00,
2013-06-08 21:12:00,59.0,-99.9,-100.00,North,-999,-999.0,-999.0,-999,0.07,,,1.55,,2013-06-09 02:12:00,
2013-06-08 21:22:00,59.0,-99.9,-100.00,North,-999,-999.0,-999.0,-999,0.07,,,1.55,,2013-06-09 02:22:00,
2013-06-08 21:30:00,59.0,-99.9,-100.00,North,-999,-999.0,-999.0,-999,0.16,,,1.71,,2013-06-09 02:30:00,
2013-06-08 21:52:00,59.0,-99.9,-100.00,North,-999,-999.0,-999.0,-999,0.16,,,1.71,,2013-06-09 02:52:00,
2013-06-08 22:02:00,59.0,-99.9,-100.00,North,-999,-999.0,-999.0,-999,0.16,,,1.71,,2013-06-09 03:02:00,
2013-06-08 22:12:00,59.0,-99.9,-100.00,North,-999,-999.0,-999.0,-999,0.16,,,1.71,,2013-06-09 03:12:00,
2013-06-08 22:22:00,59.0,-99.9,-100.00,North,-999,-999.0,-999.0,-999,0.16,,,1.71,,2013-06-09 03:22:00,
2013-06-08 22:30:00,58.0,-99.9,-100.00,North,-999,-999.0,-999.0,-999,0.08,,,1.79,,2013-06-09 03:30:00,
2013-06-08 22:54:00,58.0,-99.9,-100.00,North,-999,-999.0,-999.0,-999,0.08,,,1.79,,2013-06-09 03:54:00,
2013-06-08 23:03:00,58.0,-99.9,-100.00,North,-999,-999.0,-999.0,-999,0.08,,,1.79,,2013-06-09 04:03:00,
2013-06-08 23:13:00,58.0,-99.9,-100.00,North,-999,-999.0,-999.0,-999,0.08,,,1.79,,2013-06-09 04:13:00,
2013-06-08 23:23:00,58.0,-99.9,-100.00,North,-999,-999.0,-999.0,-999,0.08,,,1.79,,2013-06-09 04:23:00,
2013-06-08 23:30:00,58.0,-99.9,-100.00,North,-999,-999.0,-999.0,-999,0.03,,,1.82,,2013-06-09 04:30:00,
2013-06-08 23:53:00,58.0,-99.9,-100.00,North,-999,-999.0,-999.0,-999,0.03,,,1.82,,2013-06-09 04:53:00,